Location: Mentone
(34.5413°N, 85.5351°W)
Time: 12:27:06
(UTC-06:00)

Vanguard 2 Rocket - Visible Passes

Search period start: 26 January 2015 00:00
Search period end: 05 February 2015 00:00
Orbit: 554 x 3334 km, 32.9° (Epoch: 25 January)

Date Brightness Start Highest point End Pass type
(mag) Time Alt. Az. Time Alt. Az. Time Alt. Az.
26 Jan 9.8 18:14:52 10° SSW 18:30:49 33° SSE 18:39:42 20° ESE visible
26 Jan 9.1 20:30:09 10° SW 20:45:37 56° S 20:45:37 56° S visible
26 Jan 10.5 22:49:14 10° W 22:51:31 16° W 22:51:31 16° W visible
27 Jan 10.2 17:16:08 10° S 17:30:11 25° SE 17:42:58 10° E visible
27 Jan 9.1 19:29:16 10° SW 19:47:35 53° SSE 19:50:33 48° SE visible
27 Jan 9.8 21:47:33 10° WSW 21:56:28 35° WSW 21:56:28 35° WSW visible
28 Jan 9.5 18:28:56 10° SW 18:47:04 45° SSE 18:55:29 27° E visible
28 Jan 9.1 20:45:56 10° WSW 21:01:23 62° SW 21:01:23 62° SW visible
28 Jan 10.6 23:05:42 10° W 23:07:18 14° W 23:07:18 14° W visible
29 Jan 10.1 17:29:24 10° SSW 17:46:22 36° SSE 18:00:24 11° E visible
29 Jan 8.9 19:44:36 10° SW 20:03:52 65° SSE 20:06:18 60° SE visible
29 Jan 9.9 22:03:55 10° W 22:12:12 33° W 22:12:12 33° W visible
30 Jan 9.3 18:43:50 10° SW 19:03:15 57° SSE 19:11:11 34° E visible
30 Jan 9.1 21:02:05 10° WSW 21:17:04 62° WSW 21:17:04 62° WSW visible
30 Jan 10.7 23:22:11 10° W 23:22:59 12° W 23:22:59 12° W visible
31 Jan 9.9 17:43:43 10° SW 18:02:27 48° SSE 18:16:02 16° E visible
31 Jan 8.8 20:00:28 10° WSW 20:20:11 75° SSE 20:21:56 71° SE visible
31 Jan 10.0 22:20:23 10° W 22:27:50 30° W 22:27:50 30° W visible
01 Feb 9.2 18:59:19 10° WSW 19:19:29 68° SSE 19:26:46 41° E visible
01 Feb 9.3 21:18:28 10° W 21:32:39 58° WSW 21:32:39 58° WSW visible
02 Feb 9.7 17:58:47 10° SW 18:18:32 60° SSE 18:31:34 20° E visible
02 Feb 8.8 20:16:40 10° WSW 20:36:34 82° S 20:37:28 80° SE visible
02 Feb 10.2 22:36:53 10° W 22:43:22 27° W 22:43:22 27° W visible
03 Feb 9.1 19:15:15 10° WSW 19:35:46 78° SSE 19:42:15 47° E visible
03 Feb 9.4 21:34:57 10° W 21:48:08 52° W 21:48:08 52° W visible
04 Feb 9.6 18:14:24 10° WSW 18:34:41 71° SSE 18:47:00 24° E visible
04 Feb 8.9 20:33:05 10° W 20:52:54 85° S 20:52:54 85° S visible
04 Feb 10.3 22:53:20 10° W 22:58:47 23° W 22:58:47 23° W visible
